Other Public Products
Issued by NWS Grand Forks, ND

Home | Current Version | Previous Version | Graphics & Text | Print | Product List | Glossary On
Versions: 1 2 3 4 5 6 7 8 9 10 11 12 13 14 15 16 17 18 19 20 21 22 23 24 25 26 27 28 29 30 31 32 33 34 35 36 37 38 39 40 41 42 43 44 45 46 47 48 49 50
000
FPUS83 KFGF 052110
OPUFGF
PRAIRIE TO PINES WEATHER ROUNDUP
NATIONAL WEATHER SERVICE EASTERN NORTH DAKOTA/GRAND FORKS ND
300 PM CST FRI FEB 05 2016

 **SATELLITE DATA USED TO AUGMENT SKY COVER AT AUTOMATED STATIONS**
 *****  WEATHER ACROSS EASTERN NORTH DAKOTA  *****

CITY           SKY/WX    TMP DP  RH WIND       PRES   REMARKS
GRAND FORKS    MOSUNNY   28  17  63 NW6       30.13F WCI  22
GRAND FORKS AF SUNNY     28  19  69 N1        30.12F
GRAND CITY NWS   N/A     28 N/A N/A VRB1        N/A
BUXTON           N/A     29  20  69 NW5         N/A  WCI  24
DEVILS LAKE    PTSUNNY   24  19  81 W13       30.12S WCI  12
FARGO          SUNNY     30  22  72 W10       30.14R WCI  21
WAHPETON ARPT  CLEAR     28  23  80 S3        30.14S
$$

 *****  WEATHER ACROSS CENTRAL AND WESTERN NORTH DAKOTA  *****

CITY           SKY/WX    TMP DP  RH WIND       PRES   REMARKS
JAMESTOWN      SUNNY     32  19  58 NW13      30.12S WCI  22
BISMARCK       SUNNY     42  20  41 NW13      30.15F
MINOT          SUNNY     39  21  48 W15       30.07F
MINOT AFB      SUNNY     38  22  53 W15       30.06F
GARRISON         N/A     38  22  52 W16       30.09F
WILLISTON      SUNNY     37  26  64 SW12      30.09F
DICKINSON      SUNNY     40  22  48 NW14      30.09F
HETTINGER      SUNNY     43  20  39 W17       30.14F
$$

 *****  OTHER OBSERVATIONS NORTHEAST NORTH DAKOTA  *****

CITY           SKY/WX    TMP DP  RH WIND       PRES   REMARKS
WALHALLA       FAIR      27  19  74 CALM      30.11S
LANGDON        CLOUDY    25  19  80 W9        30.08S WCI  15
CAVALIER       MOCLDY    25  18  74 CALM      30.12F
GRAFTON        FAIR      21  18  86 CALM      30.15S
CANDO          NOT AVBL
FORT TOTTEN      N/A     27  18  68 W7        29.95S WCI  19
ROLLA          MOCLDY    25  19  80 SW12      30.06F WCI  14
RUGBY          FAIR      27  21  80 W6        30.09F WCI  20
 ***** THE ABOVE OBSERVATIONS ARE NON NWS ARE NOT QUALITY
        CONTROLLED AND MAY MIS-REPORT RAIN FOR SNOW...
$$

 *****  OTHER OBSERVATIONS SOUTHEAST NORTH DAKOTA *****

CITY           SKY/WX    TMP DP  RH WIND       PRES   REMARKS
COOPERSTOWN    NOT AVBL
VALLEY CITY    FAIR      30  23  74 NW12      30.14S WCI  21
OAKES          FAIR      34  25  69 NW16      30.13S WCI  23
GWINNER        NOT AVBL
SHEYENNE NWR     N/A     33  23  66 NW9       29.95S
BUFFALO          N/A     30  19  63 NW13        N/A  WCI  20
WYNDMERE       NOT AVBL
 ***** THE ABOVE OBSERVATIONS ARE NON NWS ARE NOT QUALITY
       CONTROLLED AND MAY MIS-REPORT RAIN FOR SNOW...
$$

  *****  WEATHER ACROSS NORTHERN MINNESOTA  *****

CITY           SKY/WX    TMP DP  RH WIND       PRES   REMARKS
FLAG ISLAND    PTSUNNY   18  14  86 SE3       30.08S
WARROAD        MOSUNNY   21  16  79 SW7       30.09F WCI  13
ROSEAU         PTSUNNY   21  16  79 NW5       30.10F WCI  15
HALLOCK        SUNNY     21  16  79 W3        30.12F
THF RVR FALLS  SUNNY     23  16  74 W7        30.12F WCI  15
HALSTAD        NOT AVBL
FOSSTON        CLOUDY    23  18  80 SW9       30.12R WCI  13
BAUDETTE       SUNNY     24  14  65 W5        30.06F WCI  18
WASKISH        CLOUDY    25  18  74 SW8       30.08F WCI  16
CROOKSTON      SUNNY     21  18  86 NW7       30.15S WCI  13
$$
  *****  WEATHER ACROSS CENTRAL AND WEST MINNESOTA  *****

CITY           SKY/WX    TMP DP  RH WIND       PRES   REMARKS
BEMIDJI        CLOUDY    28  21  75 NW10      30.08R WCI  19
PARK RAPIDS    CLOUDY    28  21  75 SW10      30.09R WCI  19
WADENA         CLOUDY    27  19  74 SW5       30.11S WCI  21
DETROIT LAKES  CLOUDY    28  23  80 W7        30.12R WCI  21
MOORHEAD       CLOUDY    27  23  86 SW5       30.15R WCI  21
FERGUS FALLS   CLOUDY    27  21  80 S7        30.15F WCI  19
ELBOW LAKE     CLOUDY    24  20  85 S6        30.13S FOG     WCI  17
MORRIS MN      PTSUNNY   28  23  80 S5        30.13S WCI  23
STAPLES        MOSUNNY   27  16  63 SW8       30.11S WCI  18
WHEATON        CLOUDY    30  27  86 W5        30.16R
$$
  *****  WEATHER ELSEWHERE ACROSS MINNESOTA  *****

CITY           SKY/WX    TMP DP  RH WIND       PRES   REMARKS
DULUTH         PTSUNNY   25  11  55 SW15G23   30.11F WCI  13
INTRNTL FALLS  CLOUDY    25  14  63 W5        30.06F WCI  19
ELY            CLOUDY    23  12  63 SW9       30.08S WCI  13
CLOQUET        MOSUNNY   27  10  50 S9G20     30.12F WCI  17
BRAINERD       PTSUNNY   27  14  58 SW16      30.11F WCI  15
HIBBING        CLOUDY    25  11  55 SW6       30.07F WCI  18
ALEXANDRIA     PTSUNNY   25  18  74 S12       30.12F WCI  14
SAINT CLOUD    CLOUDY    25  13  60 S13       30.18F WCI  14
MINNEAPOLIS    CLOUDY    28  14  55 SW12      30.24F WCI  18
$$

  *****  WEATHER ACROSS SOUTH DAKOTA  *****

CITY           SKY/WX    TMP DP  RH WIND       PRES   REMARKS
SIOUX FALLS    CLOUDY    29  25  85 SW9       30.15S WCI  20
BROOKINGS      FLURRIES  29  24  82 W10       30.12F WCI  20
WATERTOWN      MOSUNNY   28  22  78 NW9       30.11S WCI  19
HURON          CLOUDY    32  28  85 NW12      30.16S WCI  23
SISSETON         N/A     34  27  75 NW9       30.12S
ABERDEEN       SUNNY     41  24  51 NW12      30.14S
MITCHELL       CLOUDY    33  28  81 N8        30.17S
PIERRE         MOSUNNY   40  27  59 NW15      30.18S
MOBRIDGE       SUNNY     40  23  50 NW10      30.14S
RAPID CITY     SUNNY     41  23  48 NW17      30.19F
$$

  *****  SOME WEATHER IN NEARBY STATES *****

CITY           SKY/WX    TMP DP  RH WIND       PRES   REMARKS
GLASGOW MT     SUNNY     38  26  62 SW5       30.06F
GREAT FALLS MT CLOUDY    48  23  37 SW22G33   30.09F
CHEYENNE WY    SUNNY     30  11  45 N13G23    30.21F WCI  20
SCOTTSBLUFF NE SUNNY     34  19  54 W17       30.26S WCI  23
OMAHA NE       LGT SNOW  30  27  88 S13       30.25F FOG     WCI  20
DES MOINES IA  CLOUDY    31  18  58 S10       30.31F WCI  22
DAVENPORT IA   PTSUNNY   30  20  66 W6        30.36F WCI  24
CHICAGO IL     PTSUNNY   33  16  49 W8        30.33R
EAU CLAIRE WI  PTSUNNY   24  12  60 S7        30.27F WCI  16
LA CROSSE WI   CLOUDY    24  14  65 S6        30.33S WCI  17
$$

  *****  SOME NATIONAL WEATHER *****

CITY           SKY/WX    TMP DP  RH WIND       PRES   REMARKS
LA GUARDIA NY  PTSUNNY   41  19  41 NW23G29   30.13R
RALEIGH NC     MOSUNNY   47  18  31 NW8       30.32R
ATLANTA GA     MOSUNNY   50  14  23 VRB6      30.32F
NEW ORLEANS LA MOSUNNY   54  19  25 VRB6      30.43F
OKLAHOMA CITY  CLOUDY    53  24  32 S12       30.23F
ALBUQUERQUE NM SUNNY     40   8  26 N12       30.36F
SALT LAKE CITY PTSUNNY   36  24  62 S9        30.53F
LOS ANGELES CA MOSUNNY   76  20  12 VRB3      30.27F
BOISE ID       SUNNY     42  36  79 S10       30.49F
SEATTLE WA     CLOUDY    47  40  76 S8        30.10F
$$

*** WEATHER ACROSS MANITOBA...SASKATCHEWAN AND ONTARIO ***
                ***ONTARIO***

CITY           SKY/WX    TMP DP  RH WIND       PRES   REMARKS
GERALDTON      CLOUDY    14   3  62 W10       30.11S WCI   1
THUNDER BAY    CLOUDY    23  10  58 SW7       30.17F WCI  15
SIOUX LOOKOUT  LGT SNOW  12   9  85 SE6       30.06F WCI   3
TORONTO        PTSUNNY   34  14  44 W12G20    30.27S
BIG TROUT LK   PTSUNNY   -6 -13  71 SW5       30.05F WCI -17
PICKLE LAKE    LGT SNOW   9   0  66 S9        30.03F WCI  -5
DRYDEN         FLURRIES  16  12  86 VRB2      30.05S
KENORA         FLURRIES  18  12  79 SW6       30.05F WCI   9
$$
                *** MANITOBA***

CITY           SKY/WX    TMP DP  RH WIND       PRES   REMARKS
BRANDON        PTSUNNY   21  16  79 SW9       30.06F WCI  11
DAUPHIN        CLOUDY    21  16  79 E6        30.04F WCI  14
ISLAND LAKE    FLURRIES   3  -6  66 W12       30.07S WCI -13
PILOT MOUND      N/A     23  18  80 SW5         N/A  WCI  17
THE PAS        FLURRIES  12   7  79 SE3       30.06S
THOMPSON       CRYSTALS  -8 -20  54 N9        30.13S WCI -25
WINNIPEG       CLOUDY    16  12  86 W5        30.12S WCI   9
LYNN LAKE      SUNNY    -11 -18  70 CALM      30.07S
CHURCHILL      CRYSTALS -31 -40  61 W12       30.21R WCI -56
GILLAM         SUNNY    -20 -29  63 W8        30.16R WCI -39
$$
                ***SASKATCHEWAN***

CITY           SKY/WX    TMP DP  RH WIND       PRES   REMARKS
ESTEVAN        MOSUNNY   36  23  60 SW12      30.03F
KINDERSLEY     PTSUNNY   28  21  74 S12       29.86F WCI  18
LLOYDMINSTER   PTSUNNY   27  18  69 S10       29.75F WCI  17
PRINCE ALBERT  CLOUDY    18  14  86 S7        29.94F WCI   8
REGINA         MOSUNNY   37  25  60 S9        29.97F
YORKTON        MOSUNNY   21  16  79 SW6       29.99F WCC1F1C2F2C3F3C4F4C5F5C6F6C7F7C8F8C9F9CaFaCbFbCcFcCdFdCe!


USA.gov is the U.S. government's official web portal to all federal, state and local government web resources and services.